• In Austria
  • List of Countries
  • For 7 days
  • Water Temperature
  • Satellite Maps
  • Weather Map
  • News
  • Weather Widgets
  • user-avatar
    Login

    Hourly Weather Kadyshche

    Today, 14 November, Wednesday

    Time Temperature Precipitation Wind Pressure Humidity
    00:00 +2°C° 0.2 mm 6 mps 749 mmHg 71%
    01:00 +2°C° 0.2 mm 6 mps 749 mmHg 73%
    02:00 +2°C° 0.2 mm 6 mps 749 mmHg 75%
    03:00 +2°C° 1.3 mm 5 mps 748 mmHg 81%
    04:00 +3°C° 1.3 mm 5 mps 748 mmHg 86%
    05:00 +4°C° 1.3 mm 4 mps 748 mmHg 91%
    06:00 +5°C° 0.3 mm 4 mps 748 mmHg 90%
    07:00 +6°C° 0.3 mm 4 mps 748 mmHg 90%
    08:00 +6°C° 0.3 mm 4 mps 748 mmHg 89%
    09:00 +7°C° 0 mm 4 mps 748 mmHg 87%
    10:00 +7°C° 0 mm 5 mps 748 mmHg 84%
    11:00 +7°C° 0 mm 5 mps 748 mmHg 81%
    12:00 +8°C° 0 mm 5 mps 748 mmHg 79%
    13:00 +8°C° 0 mm 5 mps 748 mmHg 76%
    14:00 +8°C° 0 mm 6 mps 748 mmHg 74%
    15:00 +7°C° 0.4 mm 5 mps 748 mmHg 77%
    16:00 +7°C° 0.4 mm 5 mps 748 mmHg 80%
    17:00 +6°C° 0.4 mm 5 mps 748 mmHg 83%
    18:00 +6°C° 0.6 mm 5 mps 748 mmHg 84%
    19:00 +6°C° 0.6 mm 5 mps 748 mmHg 85%
    20:00 +6°C° 0.6 mm 5 mps 748 mmHg 86%
    21:00 +6°C° 0.1 mm 5 mps 748 mmHg 86%
    22:00 +6°C° 0.1 mm 5 mps 748 mmHg 87%
    23:00 +6°C° 0.1 mm 4 mps 748 mmHg 87%

    Tomorrow, 15 November, Thursday

    Time Temperature Precipitation Wind Pressure Humidity
    00:00 +6°C° 0.1 mm 5 mps 749 mmHg 86%
    01:00 +6°C° 0.1 mm 5 mps 749 mmHg 85%
    02:00 +6°C° 0.1 mm 5 mps 749 mmHg 83%
    03:00 +5°C° 0.1 mm 5 mps 749 mmHg 84%
    04:00 +5°C° 0.1 mm 5 mps 749 mmHg 85%
    05:00 +5°C° 0.1 mm 5 mps 750 mmHg 86%
    06:00 +3°C° 0.2 mm 5 mps 750 mmHg 85%
    07:00 +3°C° 0.2 mm 5 mps 750 mmHg 85%
    08:00 +3°C° 0.2 mm 5 mps 751 mmHg 85%
    09:00 +3°C° 0.1 mm 5 mps 751 mmHg 83%
    10:00 +3°C° 0.1 mm 5 mps 752 mmHg 81%
    11:00 +3°C° 0.1 mm 5 mps 752 mmHg 78%
    12:00 +3°C° 0 mm 5 mps 752 mmHg 78%
    13:00 +4°C° 0 mm 4 mps 753 mmHg 78%
    14:00 +4°C° 0 mm 4 mps 753 mmHg 77%
    15:00 +4°C° 0 mm 4 mps 753 mmHg 79%
    16:00 +3°C° 0 mm 3 mps 754 mmHg 81%
    17:00 +3°C° 0 mm 3 mps 754 mmHg 82%
    18:00 +3°C° 0 mm 3 mps 754 mmHg 83%
    19:00 +3°C° 0 mm 3 mps 755 mmHg 85%
    20:00 +3°C° 0 mm 3 mps 755 mmHg 86%
    21:00 +3°C° 0 mm 2 mps 756 mmHg 87%
    22:00 +3°C° 0 mm 2 mps 756 mmHg 88%
    23:00 +3°C° 0 mm 2 mps 756 mmHg 89%

    Day after tomorrow, 16 November, Friday

    Time Temperature Precipitation Wind Pressure Humidity
    00:00 +3°C° 0 mm 2 mps 756 mmHg 89%
    01:00 +3°C° 0 mm 2 mps 756 mmHg 89%
    02:00 +3°C° 0 mm 2 mps 757 mmHg 90%
    03:00 +3°C° 0 mm 2 mps 757 mmHg 90%
    04:00 +3°C° 0 mm 2 mps 757 mmHg 91%
    05:00 +3°C° 0 mm 2 mps 757 mmHg 92%
    06:00 +3°C° 0 mm 2 mps 757 mmHg 91%
    07:00 +3°C° 0 mm 2 mps 758 mmHg 91%
    08:00 +2°C° 0 mm 2 mps 758 mmHg 91%
    09:00 +3°C° 0 mm 2 mps 758 mmHg 89%
    10:00 +3°C° 0 mm 2 mps 758 mmHg 87%
    11:00 +4°C° 0 mm 2 mps 759 mmHg 85%
    12:00 +3°C° 0 mm 3 mps 759 mmHg 82%
    13:00 +3°C° 0 mm 3 mps 759 mmHg 79%
    14:00 +4°C° 0 mm 3 mps 759 mmHg 76%
    15:00 +3°C° 0 mm 3 mps 759 mmHg 78%
    16:00 +3°C° 0 mm 3 mps 759 mmHg 79%
    17:00 +3°C° 0 mm 2 mps 759 mmHg 80%
    18:00 +1°C° 0 mm 3 mps 759 mmHg 81%
    19:00 +1°C° 0 mm 3 mps 759 mmHg 82%
    20:00 0°C° 0 mm 3 mps 760 mmHg 84%
    21:00 -1°C° 0 mm 3 mps 760 mmHg 83%
    22:00 -1°C° 0 mm 3 mps 760 mmHg 83%
    23:00 -2°C° 0 mm 2 mps 760 mmHg 83%

    17 November, Saturday

    Time Temperature Precipitation Wind Pressure Humidity
    00:00 -2°C° 0 mm 2 mps 760 mmHg 83%
    01:00 -2°C° 0 mm 2 mps 760 mmHg 83%
    02:00 -3°C° 0 mm 2 mps 760 mmHg 82%
    03:00 -3°C° 0 mm 2 mps 760 mmHg 81%
    04:00 -3°C° 0 mm 2 mps 760 mmHg 80%
    05:00 -3°C° 0 mm 2 mps 760 mmHg 79%
    06:00 -3°C° 0 mm 2 mps 760 mmHg 78%
    07:00 -3°C° 0 mm 2 mps 760 mmHg 76%
    08:00 -3°C° 0 mm 2 mps 760 mmHg 74%
    09:00 -2°C° 0 mm 2 mps 760 mmHg 66%
    10:00 -1°C° 0 mm 2 mps 761 mmHg 58%
    11:00 0°C° 0 mm 3 mps 761 mmHg 49%
    12:00 +2°C° 0 mm 2 mps 760 mmHg 45%
    13:00 +3°C° 0 mm 2 mps 760 mmHg 41%
    14:00 +3°C° 0 mm 2 mps 759 mmHg 37%
    15:00 +2°C° 0 mm 2 mps 759 mmHg 42%
    16:00 +1°C° 0 mm 2 mps 759 mmHg 47%
    17:00 -1°C° 0 mm 2 mps 759 mmHg 53%
    18:00 -2°C° 0 mm 2 mps 759 mmHg 54%
    19:00 0°C° 0 mm 1 mps 759 mmHg 55%
    20:00 0°C° 0 mm 1 mps 759 mmHg 57%
    21:00 0°C° 0 mm 1 mps 759 mmHg 57%
    22:00 0°C° 0 mm 1 mps 758 mmHg 57%
    23:00 -1°C° 0 mm 1 mps 758 mmHg 57%

    18 November, Sunday

    Time Temperature Precipitation Wind Pressure Humidity
    00:00 -1°C° 0 mm 1 mps 758 mmHg 57%
    01:00 -3°C° 0 mm 2 mps 757 mmHg 57%
    02:00 -3°C° 0 mm 2 mps 757 mmHg 57%
    03:00 -3°C° 0 mm 2 mps 756 mmHg 59%
    04:00 -3°C° 0 mm 2 mps 756 mmHg 60%
    05:00 -4°C° 0 mm 3 mps 755 mmHg 61%
    06:00 -2°C° 0 mm 3 mps 755 mmHg 62%
    07:00 -2°C° 0 mm 3 mps 754 mmHg 63%
    08:00 -2°C° 0 mm 4 mps 753 mmHg 64%
    09:00 -1°C° 0.1 mm 4 mps 753 mmHg 66%
    10:00 -1°C° 0.1 mm 5 mps 752 mmHg 69%
    11:00 0°C° 0.1 mm 5 mps 752 mmHg 71%
    12:00 0°C° 0.1 mm 5 mps 751 mmHg 74%
    13:00 +1°C° 0.1 mm 5 mps 750 mmHg 77%
    14:00 +1°C° 0.1 mm 5 mps 750 mmHg 80%
    15:00 +1°C° 0.2 mm 4 mps 749 mmHg 84%
    16:00 +1°C° 0.2 mm 4 mps 749 mmHg 89%
    17:00 0°C° 0.2 mm 4 mps 748 mmHg 93%
    18:00 0°C° 0.1 mm 4 mps 748 mmHg 94%
    19:00 0°C° 0.1 mm 4 mps 747 mmHg 94%
    20:00 0°C° 0.1 mm 4 mps 747 mmHg 95%
    21:00 +1°C° 0.1 mm 3 mps 747 mmHg 95%
    22:00 +1°C° 0.1 mm 3 mps 747 mmHg 95%
    23:00 0°C° 0.1 mm 3 mps 747 mmHg 95%

    19 November, Monday

    Time Temperature Precipitation Wind Pressure Humidity
    00:00 0°C° 0.2 mm 3 mps 747 mmHg 94%
    01:00 -1°C° 0.2 mm 4 mps 746 mmHg 93%
    02:00 -1°C° 0.2 mm 4 mps 746 mmHg 92%
    03:00 -1°C° 0.1 mm 4 mps 746 mmHg 92%
    04:00 -1°C° 0.1 mm 4 mps 746 mmHg 92%
    05:00 -2°C° 0.1 mm 4 mps 746 mmHg 91%
    06:00 -2°C° 0.2 mm 4 mps 746 mmHg 91%
    07:00 -1°C° 0.2 mm 4 mps 745 mmHg 91%
    08:00 -1°C° 0.2 mm 4 mps 745 mmHg 91%
    09:00 -1°C° 0.4 mm 4 mps 746 mmHg 90%
    10:00 -1°C° 0.4 mm 4 mps 746 mmHg 90%
    11:00 0°C° 0.4 mm 4 mps 746 mmHg 89%
    12:00 0°C° 0.3 mm 4 mps 746 mmHg 89%
    13:00 0°C° 0.3 mm 4 mps 745 mmHg 89%
    14:00 0°C° 0.3 mm 4 mps 745 mmHg 88%
    15:00 0°C° 0.1 mm 4 mps 745 mmHg 90%
    16:00 +1°C° 0.1 mm 3 mps 745 mmHg 91%
    17:00 0°C° 0.1 mm 3 mps 745 mmHg 92%
    18:00 0°C° 0.2 mm 3 mps 746 mmHg 93%
    19:00 0°C° 0.2 mm 3 mps 746 mmHg 93%
    20:00 -1°C° 0.2 mm 4 mps 746 mmHg 93%
    21:00 -1°C° 0.2 mm 4 mps 746 mmHg 93%
    22:00 -1°C° 0.2 mm 4 mps 747 mmHg 93%
    23:00 -1°C° 0.2 mm 4 mps 747 mmHg 93%
    Show more